Hourly Weather Barpali

Today, 30 September, Wednesday

Time Temperature Precipitation Wind Pressure Humidity
00:00 +28°C° 0 mm 1 mps 739 mmHg 70%
01:00 +28°C° 0 mm 1 mps 738 mmHg 72%
02:00 +28°C° 0 mm 1 mps 738 mmHg 73%
03:00 +27°C° 0 mm 1 mps 738 mmHg 74%
04:00 +27°C° 0 mm 1 mps 738 mmHg 74%
05:00 +27°C° 0 mm 1 mps 738 mmHg 75%
06:00 +27°C° 0 mm 1 mps 738 mmHg 74%
07:00 +28°C° 0 mm 1 mps 738 mmHg 74%
08:00 +29°C° 0 mm 2 mps 739 mmHg 74%
09:00 +29°C° 0 mm 2 mps 740 mmHg 74%
10:00 +29°C° 0.1 mm 2 mps 740 mmHg 76%
11:00 +29°C° 0.1 mm 2 mps 739 mmHg 79%
12:00 +30°C° 0 mm 2 mps 739 mmHg 76%
13:00 +29°C° 0.1 mm 2 mps 738 mmHg 78%
14:00 +29°C° 0.1 mm 2 mps 737 mmHg 81%
15:00 +29°C° 0.1 mm 1 mps 736 mmHg 83%
16:00 +28°C° 0.4 mm 2 mps 737 mmHg 85%
17:00 +28°C° 0.4 mm 2 mps 737 mmHg 87%
18:00 +27°C° 0.4 mm 2 mps 737 mmHg 89%
19:00 +27°C° 0.5 mm 2 mps 738 mmHg 90%
20:00 +26°C° 0.5 mm 2 mps 738 mmHg 92%
21:00 +26°C° 0.5 mm 2 mps 739 mmHg 94%
22:00 +26°C° 0.1 mm 2 mps 739 mmHg 94%
23:00 +25°C° 0.1 mm 2 mps 738 mmHg 95%

Tomorrow, 1 October, Thursday

Time Temperature Precipitation Wind Pressure Humidity
00:00 +25°C° 0.1 mm 1 mps 738 mmHg 96%
01:00 +25°C° 1.1 mm 1 mps 738 mmHg 96%
02:00 +25°C° 1.1 mm 1 mps 738 mmHg 96%
03:00 +25°C° 1.1 mm 1 mps 737 mmHg 97%
04:00 +25°C° 3.1 mm 2 mps 737 mmHg 96%
05:00 +24°C° 3.1 mm 3 mps 738 mmHg 96%
06:00 +23°C° 3.1 mm 4 mps 738 mmHg 96%
07:00 +23°C° 2.5 mm 4 mps 738 mmHg 96%
08:00 +22°C° 2.5 mm 3 mps 739 mmHg 95%
09:00 +22°C° 2.5 mm 3 mps 740 mmHg 95%
10:00 +22°C° 1.2 mm 3 mps 739 mmHg 94%
11:00 +23°C° 1.2 mm 2 mps 739 mmHg 93%
12:00 +23°C° 1.2 mm 2 mps 739 mmHg 92%
13:00 +24°C° 0.2 mm 2 mps 738 mmHg 91%
14:00 +25°C° 0.2 mm 2 mps 738 mmHg 89%
15:00 +25°C° 0.2 mm 3 mps 737 mmHg 87%
16:00 +25°C° 0.1 mm 2 mps 737 mmHg 87%
17:00 +25°C° 0.1 mm 1 mps 737 mmHg 88%
18:00 +25°C° 0.1 mm 1 mps 737 mmHg 89%
19:00 +25°C° 0 mm 1 mps 738 mmHg 88%
20:00 +24°C° 0 mm 1 mps 738 mmHg 87%
21:00 +22°C° 0 mm 0 mps 739 mmHg 87%
22:00 +22°C° 0 mm 0 mps 738 mmHg 86%
23:00 +22°C° 0 mm 0 mps 738 mmHg 86%

Day after tomorrow, 2 October, Friday

Time Temperature Precipitation Wind Pressure Humidity
00:00 +24°C° 0 mm 1 mps 738 mmHg 85%
01:00 +24°C° 0 mm 1 mps 738 mmHg 85%
02:00 +24°C° 0 mm 1 mps 738 mmHg 85%
03:00 +24°C° 0 mm 1 mps 737 mmHg 85%
04:00 +24°C° 0.1 mm 1 mps 737 mmHg 84%
05:00 +24°C° 0.1 mm 1 mps 738 mmHg 84%
06:00 +22°C° 0.1 mm 0 mps 738 mmHg 84%
07:00 +23°C° 0.2 mm 0 mps 738 mmHg 80%
08:00 +24°C° 0.2 mm 0 mps 739 mmHg 77%
09:00 +25°C° 0.2 mm 0 mps 739 mmHg 74%
10:00 +28°C° 0 mm 1 mps 739 mmHg 71%
11:00 +30°C° 0 mm 1 mps 739 mmHg 69%
12:00 +31°C° 0 mm 1 mps 739 mmHg 66%
13:00 +31°C° 0 mm 2 mps 738 mmHg 65%
14:00 +32°C° 0 mm 2 mps 737 mmHg 65%
15:00 +32°C° 0 mm 2 mps 736 mmHg 65%
16:00 +31°C° 0 mm 2 mps 736 mmHg 68%
17:00 +30°C° 0 mm 2 mps 736 mmHg 72%
18:00 +29°C° 0 mm 1 mps 736 mmHg 75%
19:00 +29°C° 0.1 mm 1 mps 737 mmHg 75%
20:00 +28°C° 0.1 mm 1 mps 737 mmHg 74%
21:00 +26°C° 0.1 mm 0 mps 738 mmHg 73%
22:00 +26°C° 0 mm 0 mps 738 mmHg 74%
23:00 +25°C° 0 mm 0 mps 738 mmHg 75%

3 October, Saturday

Time Temperature Precipitation Wind Pressure Humidity
00:00 +25°C° 0 mm 0 mps 738 mmHg 75%
01:00 +27°C° 0.1 mm 1 mps 738 mmHg 75%
02:00 +27°C° 0.1 mm 1 mps 737 mmHg 76%
03:00 +26°C° 0.1 mm 1 mps 737 mmHg 76%
04:00 +26°C° 0.5 mm 1 mps 737 mmHg 80%
05:00 +26°C° 0.5 mm 1 mps 737 mmHg 84%
06:00 +25°C° 0.5 mm 1 mps 737 mmHg 89%
07:00 +27°C° 0 mm 1 mps 738 mmHg 87%
08:00 +28°C° 0 mm 1 mps 739 mmHg 86%
09:00 +29°C° 0 mm 1 mps 739 mmHg 84%
10:00 +30°C° 0.4 mm 1 mps 739 mmHg 81%
11:00 +31°C° 0.4 mm 1 mps 739 mmHg 78%
12:00 +31°C° 0.4 mm 1 mps 738 mmHg 75%
13:00 +32°C° 0.8 mm 1 mps 738 mmHg 74%
14:00 +32°C° 0.8 mm 1 mps 737 mmHg 73%
15:00 +32°C° 0.8 mm 1 mps 736 mmHg 71%
16:00 +31°C° 2.1 mm 1 mps 736 mmHg 76%
17:00 +30°C° 2.1 mm 2 mps 736 mmHg 82%
18:00 +29°C° 2.1 mm 2 mps 736 mmHg 87%
19:00 +28°C° 0.6 mm 2 mps 737 mmHg 88%
20:00 +28°C° 0.6 mm 2 mps 738 mmHg 88%
21:00 +28°C° 0.6 mm 2 mps 739 mmHg 89%
22:00 +27°C° 0.3 mm 1 mps 739 mmHg 90%
23:00 +27°C° 0.3 mm 1 mps 738 mmHg 90%

4 October, Sunday

Time Temperature Precipitation Wind Pressure Humidity
00:00 +27°C° 0.3 mm 1 mps 738 mmHg 90%
01:00 +27°C° 0.1 mm 1 mps 738 mmHg 91%
02:00 +27°C° 0.1 mm 1 mps 738 mmHg 91%
03:00 +27°C° 0.1 mm 1 mps 738 mmHg 91%
04:00 +27°C° 0 mm 1 mps 738 mmHg 92%
05:00 +26°C° 0 mm 1 mps 738 mmHg 93%
06:00 +26°C° 0 mm 1 mps 738 mmHg 93%
07:00 +27°C° 0 mm 1 mps 739 mmHg 90%
08:00 +28°C° 0 mm 1 mps 739 mmHg 87%
09:00 +29°C° 0 mm 1 mps 740 mmHg 84%
10:00 +30°C° 0 mm 1 mps 739 mmHg 80%
11:00 +31°C° 0 mm 1 mps 739 mmHg 77%
12:00 +32°C° 0 mm 1 mps 739 mmHg 73%
13:00 +32°C° 0.2 mm 2 mps 738 mmHg 72%
14:00 +32°C° 0.2 mm 2 mps 737 mmHg 71%
15:00 +34°C° 0.2 mm 2 mps 736 mmHg 70%
16:00 +32°C° 1.3 mm 2 mps 736 mmHg 75%
17:00 +31°C° 1.3 mm 2 mps 736 mmHg 80%
18:00 +29°C° 1.3 mm 2 mps 736 mmHg 85%
19:00 +29°C° 1.9 mm 2 mps 737 mmHg 86%
20:00 +28°C° 1.9 mm 2 mps 738 mmHg 87%
21:00 +28°C° 1.9 mm 2 mps 738 mmHg 88%
22:00 +28°C° 0.8 mm 1 mps 738 mmHg 89%
23:00 +27°C° 0.8 mm 1 mps 738 mmHg 90%

5 October, Monday

Time Temperature Precipitation Wind Pressure Humidity
00:00 +27°C° 0.8 mm 1 mps 738 mmHg 92%
01:00 +27°C° 0.2 mm 1 mps 738 mmHg 93%
02:00 +26°C° 0.2 mm 2 mps 738 mmHg 94%
03:00 +26°C° 0.2 mm 2 mps 737 mmHg 96%
04:00 +26°C° 0.2 mm 2 mps 737 mmHg 96%
05:00 +26°C° 0.2 mm 1 mps 738 mmHg 96%
06:00 +26°C° 0.2 mm 1 mps 738 mmHg 95%
07:00 +27°C° 0.3 mm 1 mps 738 mmHg 93%
08:00 +28°C° 0.3 mm 1 mps 739 mmHg 90%
09:00 +28°C° 0.3 mm 1 mps 739 mmHg 87%
10:00 +29°C° 0.4 mm 1 mps 739 mmHg 83%
11:00 +31°C° 0.4 mm 2 mps 739 mmHg 79%
12:00 +32°C° 0.4 mm 2 mps 739 mmHg 74%
13:00 +32°C° 0.3 mm 2 mps 738 mmHg 73%
14:00 +32°C° 0.3 mm 2 mps 737 mmHg 73%
15:00 +32°C° 0.3 mm 2 mps 736 mmHg 72%
16:00 +31°C° 1 mm 2 mps 736 mmHg 76%
17:00 +30°C° 1 mm 2 mps 736 mmHg 80%
18:00 +29°C° 1 mm 1 mps 737 mmHg 84%
19:00 +29°C° 0.5 mm 1 mps 737 mmHg 85%
20:00 +28°C° 0.5 mm 1 mps 738 mmHg 86%
21:00 +28°C° 0.5 mm 1 mps 738 mmHg 87%
22:00 +27°C° 0.1 mm 1 mps 738 mmHg 88%
23:00 +27°C° 0.1 mm 1 mps 738 mmHg 89%
Show more